Location: Vista Encantada
(35.1109°N, 106.5681°W)
Time: 09:17:54
(UTC+00:00)

deb Chang Zheng 4 - Pass Details

Date: 29 October 2020
Orbit: 602 x 624 km, 98.6° (Epoch: 04 December)

Event Time Altitude Azimuth Distance (km) Brightness Sun altitude
Rises 12:03:15 0° 7° (N) 2,863 7.0 -17.3°
Reaches altitude 10° 12:05:27 10° 3° (N) 1,958 6.1 -16.8°
Maximum altitude 12:09:35 54° 286° (WNW) 739 3.6 -16.0°
Drops below altitude 10° 12:13:44 10° 209° (SSW) 1,957 5.9 -15.2°
Sets 12:15:56 0° 205° (SSW) 2,861 6.8 -14.7°
